Weather History for Lawton, OK

Change the Weather History Date:

Sunday, September 29, 2013

  Actual Average Record
Temperature  
Mean Temperature 62 °F -  
Max Temperature 80 °F 82 °F 100 °F (1953)
Min Temperature 46 °F 55 °F 42 °F (1984)
Degree Days  
Heating Degree Days 2    
Growing Degree Days 12 (Base 50)    
Moisture  
Dew Point 47 °F    
Average Humidity 64    
Maximum Humidity 93    
Minimum Humidity 28    
Precipitation  
Precipitation 0.00 in - - ()
Sea Level Pressure  
Sea Level Pressure 30.03 in    
Wind  
Wind Speed 1 mph (SE)    
Max Wind Speed 6 mph    
Max Gust Speed -    
Visibility 10 miles    
Events      
Averages and records for this station are not official NWS values.
T = Trace of Precipitation, MM = Missing Value Source: NWS Daily Summary

Daily Weather History Graph

Daily Weather History Graph

Search for Another Location

Airport:

Trip Planner

Search our weather history database for the weather conditions in past years. The results will help you decide how hot, cold, wet, or windy it might be!

Date:

Astronomy

Sep. 29, 2013 Rise Set
Actual Time 7:27 AM CDT 7:20 PM CDT
Civil Twilight 7:01 AM CDT 7:45 PM CDT
Nautical Twilight 6:32 AM CDT 8:14 PM CDT
Astronomical Twilight 6:03 AM CDT 8:43 PM CDT
Moon 2:20 AM CDT (9/29) 4:06 PM CDT (9/29)
Length of Visible Light 12h 43m
Length of Day
11h 53m
Waning Crescent, 27% of the Moon is Illuminated
Sep 29
Waning Crescent
Oct 4
New
Oct 11
First Quarter
Oct 18
Full
Oct 26
Last Quarter

Hourly Weather History & Observations

Time (CDT) Temp. Dew Point Humidity Pressure Visibility Wind Dir Wind Speed Gust Speed Precip Events Conditions
12:53 AM 52.0 °F 50.0 °F 93% 30.12 in 7.0 mi Calm Calm - N/A   Clear
1:53 AM 51.1 °F 48.9 °F 92% 30.12 in 8.0 mi Calm Calm - N/A   Clear
2:53 AM 50.0 °F 48.0 °F 93% 30.10 in 6.0 mi NNW 3.5 mph - N/A   Clear
3:53 AM 48.9 °F 46.9 °F 93% 30.09 in 10.0 mi NW 3.5 mph - N/A   Clear
4:53 AM 48.9 °F 46.9 °F 93% 30.09 in 10.0 mi Calm Calm - N/A   Clear
5:53 AM 48.0 °F 46.0 °F 93% 30.09 in 10.0 mi Calm Calm - N/A   Clear
6:53 AM 46.9 °F 45.0 °F 93% 30.11 in 10.0 mi Calm Calm - N/A   Clear
7:53 AM 48.0 °F 46.0 °F 93% 30.11 in 10.0 mi Calm Calm - N/A   Clear
8:53 AM 55.9 °F 52.0 °F 87% 30.11 in 10.0 mi Calm Calm - N/A   Clear
9:53 AM 66.0 °F 53.1 °F 63% 30.10 in 10.0 mi Calm Calm - N/A   Clear
10:53 AM 72.0 °F 46.0 °F 40% 30.11 in 10.0 mi NNE 5.8 mph - N/A   Clear
11:53 AM 73.0 °F 45.0 °F 37% 30.09 in 10.0 mi Calm Calm - N/A   Clear
12:53 PM 73.9 °F 44.1 °F 34% 30.07 in 10.0 mi Calm Calm - N/A   Clear
1:53 PM 75.9 °F 43.0 °F 31% 30.03 in 10.0 mi Calm Calm - N/A   Clear
2:53 PM 77.0 °F 44.1 °F 31% 29.99 in 10.0 mi Calm Calm - N/A   Clear
3:53 PM 78.1 °F 45.0 °F 31% 29.96 in 10.0 mi Calm Calm - N/A   Clear
4:53 PM 79.0 °F 43.0 °F 28% 29.95 in 10.0 mi Calm Calm - N/A   Clear
5:53 PM 78.1 °F 42.1 °F 28% 29.94 in 10.0 mi South 3.5 mph - N/A   Clear
6:53 PM 73.9 °F 48.0 °F 40% 29.94 in 10.0 mi SSE 3.5 mph - N/A   Clear
7:53 PM 68.0 °F 48.0 °F 49% 29.94 in 10.0 mi SSE 3.5 mph - N/A   Clear
8:53 PM 63.0 °F 52.0 °F 67% 29.94 in 10.0 mi Calm Calm - N/A   Clear
9:53 PM 59.0 °F 52.0 °F 78% 29.94 in 10.0 mi SE 3.5 mph - N/A   Clear
10:53 PM 59.0 °F 50.0 °F 72% 29.95 in 10.0 mi Calm Calm - N/A   Clear
11:53 PM 57.0 °F 51.1 °F 81% 29.94 in 10.0 mi Calm Calm - N/A   Clear